Weather History for Wayne, NE

Change the Weather History Date:

Tuesday, January 22, 2013

  Actual Average (KOFK) Record (KOFK)
Temperature  
Mean Temperature 11 °F 23 °F  
Max Temperature 15 °F 33 °F 64 °F (1989)
Min Temperature 7 °F 12 °F -23 °F (1966)
Degree Days  
Heating Degree Days 54 42  
Month to date heating degree days 943  
Since 1 July heating degree days 3649  
Cooling Degree Days 0 0  
Month to date cooling degree days 0  
Year to date cooling degree days 0  
Moisture  
Dew Point 5 °F    
Average Humidity 80    
Maximum Humidity 87    
Minimum Humidity 61    
Precipitation  
Precipitation 0.00 in 0.02 in 1.30 in (1982)
Month to date precipitation 0.41  
Year to date precipitation 0.41  
Snow  
Snow 0.00 in 0.30 in - ()
Month to date snowfall 4.4  
Since 1 July snowfall 15.3  
Snow Depth -    
Sea Level Pressure  
Sea Level Pressure 30.27 in    
Wind  
Wind Speed 3 mph (SSE)    
Max Wind Speed 12 mph    
Max Gust Speed -    
Visibility 9 miles    
Events Snow    
T = Trace of Precipitation, MM = Missing Value Source: NWS Daily Summary

Daily Weather History Graph

Daily Weather History Graph

Search for Another Location

Airport:

Trip Planner

Search our weather history database for the weather conditions in past years. The results will help you decide how hot, cold, wet, or windy it might be!

Date:

Astronomy

Jan. 22, 2013 Rise Set
Actual Time 7:49 AM CST 5:29 PM CST
Civil Twilight 7:19 AM CST 6:00 PM CST
Nautical Twilight 6:45 AM CST 6:34 PM CST
Astronomical Twilight 6:11 AM CST 7:07 PM CST
Moon 1:52 PM CST (1/22) 4:13 AM CST (1/22)
Length of Visible Light 10h 40m
Length of Day
9h 40m
Waxing Gibbous, 83% of the Moon is Illuminated
Jan 22
Waxing Gibbous
Jan 26
Full
Feb 3
Last Quarter
Feb 10
New
Feb 17
First Quarter

Hourly Weather History & Observations

Time (CST) Temp. Windchill Dew Point Humidity Pressure Visibility Wind Dir Wind Speed Gust Speed Precip Events Conditions
12:15 AM 9.3 °F - 0.3 °F 67% 30.33 in 10.0 mi Calm Calm - N/A   Overcast
12:35 AM 9.3 °F - -0.6 °F 64% 30.33 in 10.0 mi Calm Calm - N/A   Overcast
12:55 AM 9.3 °F - -0.8 °F 64% 30.32 in 10.0 mi Calm Calm - N/A   Mostly Cloudy
1:55 AM 9.9 °F 0.2 °F 0.1 °F 65% 30.32 in 10.0 mi NNW 5.8 mph - N/A   Overcast
2:15 AM 9.5 °F 3.0 °F -0.6 °F 64% 30.31 in 10.0 mi NNW 3.5 mph - N/A   Overcast
2:35 AM 9.5 °F - -1.5 °F 61% 30.32 in 10.0 mi Calm Calm - N/A   Overcast
2:55 AM 9.5 °F 3.0 °F -0.8 °F 63% 30.32 in 10.0 mi North 3.5 mph - N/A   Overcast
3:15 AM 9.5 °F - -0.0 °F 65% 30.32 in 10.0 mi Calm Calm - N/A   Overcast
3:35 AM 9.3 °F - -0.2 °F 65% 30.31 in 5.0 mi Calm Calm - N/A Snow Light Snow
3:55 AM 8.6 °F - 0.3 °F 69% 30.30 in 4.0 mi Calm Calm - N/A Snow Light Snow
4:15 AM 8.6 °F - 1.4 °F 73% 30.30 in 4.0 mi Calm Calm - N/A Snow Light Snow
4:35 AM 8.4 °F - 2.3 °F 76% 30.30 in 1.8 mi Calm Calm - N/A Snow Light Snow
4:55 AM 8.4 °F - 3.2 °F 79% 30.30 in 1.5 mi Calm Calm - N/A Snow Light Snow
5:15 AM 8.2 °F - 3.9 °F 83% 30.30 in 1.2 mi Calm Calm - N/A Snow Light Snow
5:35 AM 8.4 °F - 4.1 °F 83% 30.30 in 1.5 mi Calm Calm - N/A Snow Light Snow
5:55 AM 8.2 °F - 4.3 °F 84% 30.30 in 1.5 mi Calm Calm - N/A Snow Light Snow
6:15 AM 8.2 °F - 4.5 °F 85% 30.31 in 1.5 mi Calm Calm - N/A Snow Light Snow
6:35 AM 8.1 °F - 4.5 °F 85% 30.32 in 1.8 mi Calm Calm - N/A Snow Light Snow
6:55 AM 8.1 °F - 4.1 °F 84% 30.31 in 2.0 mi Calm Calm - N/A Snow Light Snow
7:15 AM 8.4 °F - 4.3 °F 83% 30.32 in 3.0 mi Calm Calm - N/A Snow Light Snow
7:35 AM 7.9 °F - 3.7 °F 83% 30.32 in 5.0 mi Calm Calm - N/A Snow Light Snow
7:55 AM 7.9 °F - 4.1 °F 85% 30.33 in 7.0 mi Calm Calm - N/A Snow Light Snow
8:15 AM 8.4 °F 1.8 °F 4.6 °F 85% 30.33 in 10.0 mi East 3.5 mph - N/A   Overcast
8:35 AM 8.6 °F 2.0 °F 4.6 °F 84% 30.33 in 10.0 mi ESE 3.5 mph - N/A   Overcast
8:55 AM 8.6 °F 0.1 °F 4.5 °F 83% 30.33 in 10.0 mi SE 4.6 mph - N/A Snow Light Snow
9:15 AM 9.0 °F 2.4 °F 4.6 °F 83% 30.32 in 10.0 mi SSE 3.5 mph - N/A Snow Light Snow
9:35 AM 9.3 °F 1.0 °F 5.0 °F 83% 30.32 in 10.0 mi SSE 4.6 mph - N/A Snow Light Snow
9:55 AM 9.5 °F -1.5 °F 5.0 °F 82% 30.32 in 10.0 mi South 6.9 mph - N/A   Overcast
10:15 AM 9.9 °F -2.2 °F 5.0 °F 81% 30.32 in 10.0 mi SSE 8.1 mph - N/A   Overcast
10:35 AM 10.4 °F -0.4 °F 5.4 °F 80% 30.33 in 10.0 mi South 6.9 mph - N/A   Overcast
10:55 AM 10.8 °F 0.0 °F 5.5 °F 79% 30.34 in 10.0 mi South 6.9 mph - N/A   Overcast
11:15 AM 11.1 °F -0.6 °F 6.1 °F 80% 30.33 in 10.0 mi South 8.1 mph - N/A   Overcast
11:35 AM 11.7 °F -0.9 °F 6.4 °F 80% 30.32 in 10.0 mi South 9.2 mph - N/A   Overcast
11:55 AM 12.0 °F 0.5 °F 6.6 °F 79% 30.32 in 10.0 mi South 8.1 mph - N/A   Overcast
12:15 PM 12.2 °F -0.2 °F 7.0 °F 80% 30.31 in 10.0 mi South 9.2 mph - N/A   Overcast
12:35 PM 12.7 °F 0.4 °F 7.5 °F 80% 30.30 in 10.0 mi SSE 9.2 mph - N/A Snow Light Snow
12:55 PM 13.1 °F 1.8 °F 7.9 °F 80% 30.29 in 10.0 mi South 8.1 mph - N/A   Overcast
1:15 PM 13.6 °F 2.5 °F 8.1 °F 78% 30.27 in 10.0 mi SSE 8.1 mph - N/A   Overcast
1:35 PM 13.8 °F 1.0 °F 8.6 °F 80% 30.25 in 10.0 mi South 10.4 mph - N/A   Overcast
1:55 PM 14.4 °F 2.4 °F 8.8 °F 79% 30.25 in 10.0 mi South 9.2 mph - N/A   Overcast
2:15 PM 14.9 °F 1.6 °F 9.1 °F 78% 30.24 in 10.0 mi South 11.5 mph - N/A Snow Light Snow
2:35 PM 15.4 °F 4.6 °F 9.7 °F 78% 30.24 in 10.0 mi SSE 8.1 mph - N/A Snow Light Snow
2:55 PM 15.6 °F 4.9 °F 9.9 °F 78% 30.24 in 10.0 mi South 8.1 mph - N/A Snow Light Snow
3:15 PM 15.8 °F 3.4 °F 10.0 °F 78% 30.23 in 10.0 mi South 10.4 mph - N/A   Clear
3:35 PM 15.6 °F 4.9 °F 10.0 °F 79% 30.22 in 10.0 mi SSE 8.1 mph - N/A   Clear
3:55 PM 15.6 °F 4.0 °F 10.4 °F 80% 30.22 in 10.0 mi SSE 9.2 mph - N/A   Clear
4:15 PM 15.4 °F 4.6 °F 9.9 °F 79% 30.23 in 10.0 mi SSE 8.1 mph - N/A   Clear
4:35 PM 15.4 °F 5.6 °F 10.0 °F 79% 30.22 in 10.0 mi SSE 6.9 mph - N/A   Clear
4:55 PM 14.7 °F 4.8 °F 9.5 °F 80% 30.22 in 10.0 mi SSE 6.9 mph - N/A   Clear
5:15 PM 13.8 °F 4.9 °F 9.1 °F 82% 30.21 in 10.0 mi SSE 5.8 mph - N/A   Clear
5:35 PM 13.1 °F 5.4 °F 8.8 °F 83% 30.22 in 10.0 mi SE 4.6 mph - N/A   Clear
5:55 PM 12.0 °F 5.9 °F 8.1 °F 84% 30.22 in 10.0 mi ESE 3.5 mph - N/A   Clear
6:15 PM 11.1 °F - 7.2 °F 84% 30.21 in 10.0 mi Calm Calm - N/A   Clear
6:35 PM 11.3 °F -0.4 °F 7.7 °F 85% 30.22 in 10.0 mi SSE 8.1 mph - N/A   Clear
6:55 PM 11.5 °F -0.2 °F 7.7 °F 85% 30.22 in 10.0 mi SSE 8.1 mph - N/A   Clear
7:15 PM 10.9 °F -2.6 °F 7.3 °F 85% 30.21 in 10.0 mi SSE 10.4 mph - N/A   Clear
7:35 PM 10.0 °F -2.9 °F 6.4 °F 85% 30.21 in 10.0 mi SSE 9.2 mph - N/A   Clear
7:55 PM 10.2 °F -2.7 °F 6.4 °F 85% 30.20 in 10.0 mi SE 9.2 mph - N/A   Clear
8:15 PM 9.9 °F -1.1 °F 5.9 °F 84% 30.20 in 10.0 mi SSE 6.9 mph - N/A   Clear
8:35 PM 9.1 °F -0.7 °F 5.4 °F 85% 30.20 in 10.0 mi SSE 5.8 mph - N/A   Clear
8:55 PM 10.4 °F -2.4 °F 6.8 °F 85% 30.19 in 10.0 mi SSE 9.2 mph - N/A   Clear
9:15 PM 10.2 °F 0.6 °F 6.1 °F 83% 30.19 in 10.0 mi SSE 5.8 mph - N/A   Clear
9:35 PM 9.5 °F - 5.5 °F 84% 30.19 in 10.0 mi Calm Calm - N/A   Clear
9:55 PM 9.1 °F - 5.2 °F 84% 30.20 in 10.0 mi Calm Calm - N/A   Clear
10:15 PM 8.6 °F - 5.0 °F 85% 30.20 in 10.0 mi Calm Calm - N/A   Clear
10:35 PM 8.6 °F 0.1 °F 5.0 °F 85% 30.20 in 10.0 mi SSW 4.6 mph - N/A   Clear
10:55 PM 7.7 °F -2.4 °F 4.3 °F 86% 30.19 in 10.0 mi SSW 5.8 mph - N/A   Clear
11:15 PM 7.0 °F 0.1 °F 3.2 °F 84% 30.20 in 10.0 mi South 3.5 mph - N/A   Clear
11:35 PM 7.7 °F -0.9 °F 4.6 °F 87% 30.19 in 10.0 mi South 4.6 mph - N/A   Clear
11:55 PM 7.3 °F -4.1 °F 3.9 °F 86% 30.19 in 10.0 mi South 6.9 mph - N/A   Clear